Year,Month,Day,Hour,Minute,Value (Times are PST for temperature in C)
2015,01,29,00,00,2.40
2015,01,29,00,01,2.40
2015,01,29,00,02,2.40
2015,01,29,00,03,2.40
2015,01,29,00,04,2.40
2015,01,29,00,05,2.30
2015,01,29,00,06,2.30
2015,01,29,00,07,2.30
2015,01,29,00,08,2.30
2015,01,29,00,09,2.30
2015,01,29,00,10,2.30
2015,01,29,00,11,2.20
2015,01,29,00,12,2.20
2015,01,29,00,13,2.20
2015,01,29,00,14,2.20
2015,01,29,00,15,2.20
2015,01,29,00,16,2.20
2015,01,29,00,17,2.20
2015,01,29,00,18,2.20
2015,01,29,00,19,2.10
2015,01,29,00,20,2.10
2015,01,29,00,21,2.10
2015,01,29,00,22,2.10
2015,01,29,00,23,2.10
2015,01,29,00,24,2.10
2015,01,29,00,25,2.10
2015,01,29,00,26,2.00
2015,01,29,00,27,2.00
2015,01,29,00,28,2.00
2015,01,29,00,29,2.00
2015,01,29,00,30,2.00
2015,01,29,00,31,1.90
2015,01,29,00,32,1.90
2015,01,29,00,33,1.90
2015,01,29,00,34,1.90
2015,01,29,00,35,1.90
2015,01,29,00,36,1.90
2015,01,29,00,37,1.90
2015,01,29,00,38,1.90
2015,01,29,00,39,1.90
2015,01,29,00,40,1.90
2015,01,29,00,41,1.90
2015,01,29,00,42,1.90
2015,01,29,00,43,1.90
2015,01,29,00,44,1.90
2015,01,29,00,45,1.90
2015,01,29,00,46,1.90
2015,01,29,00,47,1.90
2015,01,29,00,48,1.90
2015,01,29,00,49,1.90
2015,01,29,00,50,1.90
2015,01,29,00,51,1.90
2015,01,29,00,52,1.90
2015,01,29,00,53,1.90
2015,01,29,00,54,1.90
2015,01,29,00,55,1.90
2015,01,29,00,56,1.90
2015,01,29,00,57,1.90
2015,01,29,00,58,1.90
2015,01,29,00,59,1.90
2015,01,29,01,00,1.90
2015,01,29,01,01,1.90
2015,01,29,01,02,1.90
2015,01,29,01,03,1.90
2015,01,29,01,04,1.90
2015,01,29,01,05,1.90
2015,01,29,01,06,1.90
2015,01,29,01,07,1.90
2015,01,29,01,08,1.90
2015,01,29,01,09,1.90
2015,01,29,01,10,1.90
2015,01,29,01,11,1.80
2015,01,29,01,12,1.80
2015,01,29,01,13,1.80
2015,01,29,01,14,1.80
2015,01,29,01,15,1.80
2015,01,29,01,16,1.80
2015,01,29,01,17,1.80
2015,01,29,01,18,1.80
2015,01,29,01,19,1.80
2015,01,29,01,20,1.80
2015,01,29,01,21,1.80
2015,01,29,01,22,1.80
2015,01,29,01,23,1.80
2015,01,29,01,24,1.80
2015,01,29,01,25,1.80
2015,01,29,01,26,1.80
2015,01,29,01,27,1.80
2015,01,29,01,28,1.80
2015,01,29,01,29,1.80
2015,01,29,01,30,1.90
2015,01,29,01,31,1.90
2015,01,29,01,32,1.90
2015,01,29,01,33,1.90
2015,01,29,01,34,1.90
2015,01,29,01,35,1.90
2015,01,29,01,36,1.90
2015,01,29,01,37,1.90
2015,01,29,01,38,1.90
2015,01,29,01,39,1.90
2015,01,29,01,40,1.90
2015,01,29,01,41,1.90
2015,01,29,01,42,1.80
2015,01,29,01,43,1.80
2015,01,29,01,44,1.80
2015,01,29,01,45,1.80
2015,01,29,01,46,1.80
2015,01,29,01,47,1.80
2015,01,29,01,48,1.80
2015,01,29,01,49,1.80
2015,01,29,01,50,1.80
2015,01,29,01,51,1.90
2015,01,29,01,52,1.90
2015,01,29,01,53,1.90
2015,01,29,01,54,2.00
2015,01,29,01,55,2.00
2015,01,29,01,56,2.10
2015,01,29,01,57,2.10
2015,01,29,01,58,2.10
2015,01,29,01,59,2.20
2015,01,29,02,00,2.20
2015,01,29,02,01,2.20
2015,01,29,02,02,2.20
2015,01,29,02,03,2.30
2015,01,29,02,04,2.30
2015,01,29,02,05,2.30
2015,01,29,02,06,2.30
2015,01,29,02,07,2.30
2015,01,29,02,08,2.30
2015,01,29,02,09,2.30
2015,01,29,02,10,2.40
2015,01,29,02,11,2.40
2015,01,29,02,12,2.40
2015,01,29,02,13,2.40
2015,01,29,02,14,2.50
2015,01,29,02,15,2.50
2015,01,29,02,16,2.60
2015,01,29,02,17,2.60
2015,01,29,02,18,2.70
2015,01,29,02,19,2.70
2015,01,29,02,20,2.70
2015,01,29,02,21,2.80
2015,01,29,02,22,2.80
2015,01,29,02,23,2.90
2015,01,29,02,24,2.90
2015,01,29,02,25,2.90
2015,01,29,02,26,2.90
2015,01,29,02,27,3.00
2015,01,29,02,28,3.00
2015,01,29,02,29,3.10
2015,01,29,02,30,3.10
2015,01,29,02,31,3.20
2015,01,29,02,32,3.20
2015,01,29,02,33,3.30
2015,01,29,02,34,3.30
2015,01,29,02,35,3.30
2015,01,29,02,36,3.30
2015,01,29,02,37,3.40
2015,01,29,02,38,3.40
2015,01,29,02,39,3.50
2015,01,29,02,40,3.50
2015,01,29,02,41,3.60
2015,01,29,02,42,3.70
2015,01,29,02,43,3.70
2015,01,29,02,44,3.70
2015,01,29,02,45,3.80
2015,01,29,02,46,3.80
2015,01,29,02,47,3.70
2015,01,29,02,48,3.70
2015,01,29,02,49,3.80
2015,01,29,02,50,3.80
2015,01,29,02,51,3.80
2015,01,29,02,52,3.80
2015,01,29,02,53,3.80
2015,01,29,02,54,3.80
2015,01,29,02,55,3.80
2015,01,29,02,56,3.70
2015,01,29,02,57,3.70
2015,01,29,02,58,3.70
2015,01,29,02,59,3.70
2015,01,29,03,00,3.70
2015,01,29,03,01,3.70
2015,01,29,03,02,3.80
2015,01,29,03,03,3.80
2015,01,29,03,04,3.80
2015,01,29,03,05,3.80
2015,01,29,03,06,3.90
2015,01,29,03,07,3.90
2015,01,29,03,08,3.90
2015,01,29,03,09,3.80
2015,01,29,03,10,3.80
2015,01,29,03,11,3.80
2015,01,29,03,12,3.80
2015,01,29,03,13,3.90
2015,01,29,03,14,3.90
2015,01,29,03,15,3.80
2015,01,29,03,16,3.90
2015,01,29,03,17,4.00
2015,01,29,03,18,4.10
2015,01,29,03,19,4.10
2015,01,29,03,20,4.10
2015,01,29,03,21,4.10
2015,01,29,03,22,4.20
2015,01,29,03,23,4.20
2015,01,29,03,24,4.20
2015,01,29,03,25,4.20
2015,01,29,03,26,4.10
2015,01,29,03,27,4.10
2015,01,29,03,28,4.10
2015,01,29,03,29,4.10
2015,01,29,03,30,4.10
2015,01,29,03,31,4.00
2015,01,29,03,32,4.00
2015,01,29,03,33,4.00
2015,01,29,03,34,3.90
2015,01,29,03,35,3.90
2015,01,29,03,36,3.90
2015,01,29,03,37,3.90
2015,01,29,03,38,3.80
2015,01,29,03,39,3.80
2015,01,29,03,40,3.70
2015,01,29,03,41,3.70
2015,01,29,03,42,3.70
2015,01,29,03,43,3.60
2015,01,29,03,44,3.60
2015,01,29,03,45,3.60
2015,01,29,03,46,3.60
2015,01,29,03,47,3.60
2015,01,29,03,48,3.60
2015,01,29,03,49,3.60
2015,01,29,03,50,3.60
2015,01,29,03,51,3.60
2015,01,29,03,52,3.60
2015,01,29,03,53,3.60
2015,01,29,03,54,3.60
2015,01,29,03,55,3.60
2015,01,29,03,56,3.60
2015,01,29,03,57,3.60
2015,01,29,03,58,3.60
2015,01,29,03,59,3.50
2015,01,29,04,00,3.50
2015,01,29,04,01,3.60
2015,01,29,04,02,3.60
2015,01,29,04,03,3.60
2015,01,29,04,04,3.60
2015,01,29,04,05,3.60
2015,01,29,04,06,3.60
2015,01,29,04,07,3.60
2015,01,29,04,08,3.60
2015,01,29,04,09,3.60
2015,01,29,04,10,3.60
2015,01,29,04,11,3.60
2015,01,29,04,12,3.60
2015,01,29,04,13,3.60
2015,01,29,04,14,3.60
2015,01,29,04,15,3.70
2015,01,29,04,16,3.70
2015,01,29,04,17,3.70
2015,01,29,04,18,3.70
2015,01,29,04,19,3.80
2015,01,29,04,20,3.80
2015,01,29,04,21,3.90
2015,01,29,04,22,3.90
2015,01,29,04,23,3.90
2015,01,29,04,24,3.90
2015,01,29,04,25,4.00
2015,01,29,04,26,4.00
2015,01,29,04,27,4.00
2015,01,29,04,28,4.10
2015,01,29,04,29,4.10
2015,01,29,04,30,4.10
2015,01,29,04,31,4.10
2015,01,29,04,32,4.10
2015,01,29,04,33,4.10
2015,01,29,04,34,4.10
2015,01,29,04,35,4.10
2015,01,29,04,36,4.10
2015,01,29,04,37,4.10
2015,01,29,04,38,4.10
2015,01,29,04,39,4.10
2015,01,29,04,40,4.10
2015,01,29,04,41,4.10
2015,01,29,04,42,4.10
2015,01,29,04,43,4.10
2015,01,29,04,44,4.10
2015,01,29,04,45,4.10
2015,01,29,04,46,4.20
2015,01,29,04,47,4.20
2015,01,29,04,48,4.20
2015,01,29,04,49,4.20
2015,01,29,04,50,4.20
2015,01,29,04,51,4.20
2015,01,29,04,52,4.20
2015,01,29,04,53,4.20
2015,01,29,04,54,4.20
2015,01,29,04,55,4.20
2015,01,29,04,56,4.20
2015,01,29,04,57,4.20
2015,01,29,04,58,4.20
2015,01,29,04,59,4.20
2015,01,29,05,00,4.20
2015,01,29,05,01,4.20
2015,01,29,05,02,4.30
2015,01,29,05,03,4.30
2015,01,29,05,04,4.30
2015,01,29,05,05,4.30
2015,01,29,05,06,4.30
2015,01,29,05,07,4.30
2015,01,29,05,08,4.30
2015,01,29,05,09,4.30
2015,01,29,05,10,4.30
2015,01,29,05,11,4.30
2015,01,29,05,12,4.30
2015,01,29,05,13,4.30
2015,01,29,05,14,4.30
2015,01,29,05,15,4.30
2015,01,29,05,16,4.30
2015,01,29,05,17,4.40
2015,01,29,05,18,4.40
2015,01,29,05,19,4.40
2015,01,29,05,20,4.40
2015,01,29,05,21,4.40
2015,01,29,05,22,4.40
2015,01,29,05,23,4.40
2015,01,29,05,24,4.40
2015,01,29,05,25,4.40
2015,01,29,05,26,4.40
2015,01,29,05,27,4.40
2015,01,29,05,28,4.40
2015,01,29,05,29,4.50
2015,01,29,05,30,4.50
2015,01,29,05,31,4.50
2015,01,29,05,32,4.50
2015,01,29,05,33,4.60
2015,01,29,05,34,4.60
2015,01,29,05,35,4.60
2015,01,29,05,36,4.60
2015,01,29,05,37,4.60
2015,01,29,05,38,4.60
2015,01,29,05,39,4.60
2015,01,29,05,40,4.70
2015,01,29,05,41,4.60
2015,01,29,05,42,4.70
2015,01,29,05,43,4.70
2015,01,29,05,44,4.70
2015,01,29,05,45,4.70
2015,01,29,05,46,4.70
2015,01,29,05,47,4.70
2015,01,29,05,48,4.60
2015,01,29,05,49,4.60
2015,01,29,05,50,4.60
2015,01,29,05,51,4.60
2015,01,29,05,52,4.60
2015,01,29,05,53,4.60
2015,01,29,05,54,4.60
2015,01,29,05,55,4.60
2015,01,29,05,56,4.60
2015,01,29,05,57,4.60
2015,01,29,05,58,4.60
2015,01,29,05,59,4.60
2015,01,29,06,00,4.50
2015,01,29,06,01,4.50
2015,01,29,06,02,4.50
2015,01,29,06,03,4.50
2015,01,29,06,04,4.50
2015,01,29,06,05,4.50
2015,01,29,06,06,4.50
2015,01,29,06,07,4.50
2015,01,29,06,08,4.50
2015,01,29,06,09,4.50
2015,01,29,06,10,4.40
2015,01,29,06,11,4.40
2015,01,29,06,12,4.40
2015,01,29,06,13,4.40
2015,01,29,06,14,4.40
2015,01,29,06,15,4.40
2015,01,29,06,16,4.40
2015,01,29,06,17,4.40
2015,01,29,06,18,4.40
2015,01,29,06,19,4.40
2015,01,29,06,20,4.40
2015,01,29,06,21,4.40
2015,01,29,06,22,4.40
2015,01,29,06,23,4.40
2015,01,29,06,24,4.40
2015,01,29,06,25,4.40
2015,01,29,06,26,4.30
2015,01,29,06,27,4.30
2015,01,29,06,28,4.30
2015,01,29,06,29,4.30
2015,01,29,06,30,4.30
2015,01,29,06,31,4.30
2015,01,29,06,32,4.30
2015,01,29,06,33,4.20
2015,01,29,06,34,4.20
2015,01,29,06,35,4.20
2015,01,29,06,36,4.20
2015,01,29,06,37,4.20
2015,01,29,06,38,4.10
2015,01,29,06,39,4.10
2015,01,29,06,40,4.10
2015,01,29,06,41,4.10
2015,01,29,06,42,4.10
2015,01,29,06,43,4.00
2015,01,29,06,44,4.00
2015,01,29,06,45,4.00
2015,01,29,06,46,3.90
2015,01,29,06,47,3.90
2015,01,29,06,48,3.90
2015,01,29,06,49,3.80
2015,01,29,06,50,3.80
2015,01,29,06,51,3.80
2015,01,29,06,52,3.80
2015,01,29,06,53,3.70
2015,01,29,06,54,3.70
2015,01,29,06,55,3.70
2015,01,29,06,56,3.70
2015,01,29,06,57,3.70
2015,01,29,06,58,3.70
2015,01,29,06,59,3.70
2015,01,29,07,00,3.70
2015,01,29,07,01,3.70
2015,01,29,07,02,3.60
2015,01,29,07,03,3.60
2015,01,29,07,04,3.60
2015,01,29,07,05,3.50
2015,01,29,07,06,3.50
2015,01,29,07,07,3.50
2015,01,29,07,08,3.50
2015,01,29,07,09,3.50
2015,01,29,07,10,3.50
2015,01,29,07,11,3.50
2015,01,29,07,12,3.50
2015,01,29,07,13,3.50
2015,01,29,07,14,3.50
2015,01,29,07,15,3.50
2015,01,29,07,16,3.50
2015,01,29,07,17,3.50
2015,01,29,07,18,3.50
2015,01,29,07,19,3.50
2015,01,29,07,20,3.50
2015,01,29,07,21,3.50
2015,01,29,07,22,3.40
2015,01,29,07,23,3.50
2015,01,29,07,24,3.50
2015,01,29,07,25,3.50
2015,01,29,07,26,3.50
2015,01,29,07,27,3.50
2015,01,29,07,28,3.40
2015,01,29,07,29,3.40
2015,01,29,07,30,3.40
2015,01,29,07,31,3.40
2015,01,29,07,32,3.30
2015,01,29,07,33,3.30
2015,01,29,07,34,3.40
2015,01,29,07,35,3.40
2015,01,29,07,36,3.40
2015,01,29,07,37,3.40
2015,01,29,07,38,3.40
2015,01,29,07,39,3.40
2015,01,29,07,40,3.40
2015,01,29,07,41,3.40
2015,01,29,07,42,3.30
2015,01,29,07,43,3.30
2015,01,29,07,44,3.40
2015,01,29,07,45,3.40
2015,01,29,07,46,3.40
2015,01,29,07,47,3.40
2015,01,29,07,48,3.40
2015,01,29,07,49,3.40
2015,01,29,07,50,3.50
2015,01,29,07,51,3.50
2015,01,29,07,52,3.50
2015,01,29,07,53,3.60
2015,01,29,07,54,3.60
2015,01,29,07,55,3.60
2015,01,29,07,56,3.60
2015,01,29,07,57,3.60
2015,01,29,07,58,3.60
2015,01,29,07,59,3.60
2015,01,29,08,00,3.60
2015,01,29,08,01,3.60
2015,01,29,08,02,3.60
2015,01,29,08,03,3.70
2015,01,29,08,04,3.70
2015,01,29,08,05,3.70
2015,01,29,08,06,3.80
2015,01,29,08,07,3.80
2015,01,29,08,08,3.80
2015,01,29,08,09,3.80
2015,01,29,08,10,3.90
2015,01,29,08,11,3.90
2015,01,29,08,12,3.90
2015,01,29,08,13,3.90
2015,01,29,08,14,3.90
2015,01,29,08,15,4.00
2015,01,29,08,16,4.00
2015,01,29,08,17,4.00
2015,01,29,08,18,4.00
2015,01,29,08,19,4.10
2015,01,29,08,20,4.10
2015,01,29,08,21,4.10
2015,01,29,08,22,4.10
2015,01,29,08,23,4.10
2015,01,29,08,24,4.20
2015,01,29,08,25,4.20
2015,01,29,08,26,4.20
2015,01,29,08,27,4.20
2015,01,29,08,28,4.20
2015,01,29,08,29,4.30
2015,01,29,08,30,4.30
2015,01,29,08,31,4.30
2015,01,29,08,32,4.30
2015,01,29,08,33,4.30
2015,01,29,08,34,4.40
2015,01,29,08,35,4.40
2015,01,29,08,36,4.40
2015,01,29,08,37,4.40
2015,01,29,08,38,4.50
2015,01,29,08,39,4.50
2015,01,29,08,40,4.50
2015,01,29,08,41,4.60
2015,01,29,08,42,4.60
2015,01,29,08,43,4.60
2015,01,29,08,44,4.70
2015,01,29,08,45,4.70
2015,01,29,08,46,4.70
2015,01,29,08,47,4.70
2015,01,29,08,48,4.80
2015,01,29,08,49,4.80
2015,01,29,08,50,4.80
2015,01,29,08,51,4.90
2015,01,29,08,52,4.90
2015,01,29,08,53,4.90
2015,01,29,08,54,5.00
2015,01,29,08,55,5.00
2015,01,29,08,56,5.00
2015,01,29,08,57,5.00
2015,01,29,08,58,5.10
2015,01,29,08,59,5.10
2015,01,29,09,00,5.10
2015,01,29,09,01,5.10
2015,01,29,09,02,5.10
2015,01,29,09,03,5.10
2015,01,29,09,04,5.10
2015,01,29,09,05,5.10
2015,01,29,09,06,5.10
2015,01,29,09,07,5.10
2015,01,29,09,08,5.10
2015,01,29,09,09,5.10
2015,01,29,09,10,5.10
2015,01,29,09,11,5.10
2015,01,29,09,12,5.10
2015,01,29,09,13,5.10
2015,01,29,09,14,5.10
2015,01,29,09,15,5.20
2015,01,29,09,16,5.20
2015,01,29,09,17,5.20
2015,01,29,09,18,5.30
2015,01,29,09,19,5.30
2015,01,29,09,20,5.30
2015,01,29,09,21,5.40
2015,01,29,09,22,5.40
2015,01,29,09,23,5.50
2015,01,29,09,24,5.60
2015,01,29,09,25,5.60
2015,01,29,09,26,5.70
2015,01,29,09,27,5.70
2015,01,29,09,28,5.70
2015,01,29,09,29,5.80
2015,01,29,09,30,5.80
2015,01,29,09,31,5.90
2015,01,29,09,32,5.90
2015,01,29,09,33,6.00
2015,01,29,09,34,6.00
2015,01,29,09,35,6.10
2015,01,29,09,36,6.10
2015,01,29,09,37,6.20
2015,01,29,09,38,6.20
2015,01,29,09,39,6.20
2015,01,29,09,40,6.20
2015,01,29,09,41,6.30
2015,01,29,09,42,6.30
2015,01,29,09,43,6.30
2015,01,29,09,44,6.30
2015,01,29,09,45,6.30
2015,01,29,09,46,6.30
2015,01,29,09,47,6.30
2015,01,29,09,48,6.40
2015,01,29,09,49,6.40
2015,01,29,09,50,6.50
2015,01,29,09,51,6.50
2015,01,29,09,52,6.50
2015,01,29,09,53,6.60
2015,01,29,09,54,6.60
2015,01,29,09,55,6.60
2015,01,29,09,56,6.60
2015,01,29,09,57,6.60
2015,01,29,09,58,6.60
2015,01,29,09,59,6.50
2015,01,29,10,00,6.50
2015,01,29,10,01,6.50
2015,01,29,10,02,6.40
2015,01,29,10,03,6.40
2015,01,29,10,04,6.40
2015,01,29,10,05,6.40
2015,01,29,10,06,6.40
2015,01,29,10,07,6.40
2015,01,29,10,08,6.40
2015,01,29,10,09,6.40
2015,01,29,10,10,6.40
2015,01,29,10,11,6.40
2015,01,29,10,12,6.40
2015,01,29,10,13,6.40
2015,01,29,10,14,6.50
2015,01,29,10,15,6.50
2015,01,29,10,16,6.50
2015,01,29,10,17,6.50
2015,01,29,10,18,6.60
2015,01,29,10,19,6.60
2015,01,29,10,20,6.60
2015,01,29,10,21,6.60
2015,01,29,10,22,6.60
2015,01,29,10,23,6.60
2015,01,29,10,24,6.60
2015,01,29,10,25,6.70
2015,01,29,10,26,6.70
2015,01,29,10,27,6.70
2015,01,29,10,28,6.70
2015,01,29,10,29,6.70
2015,01,29,10,30,6.70
2015,01,29,10,31,6.70
2015,01,29,10,32,6.70
2015,01,29,10,33,6.70
2015,01,29,10,34,6.80
2015,01,29,10,35,6.80
2015,01,29,10,36,6.80
2015,01,29,10,37,6.80
2015,01,29,10,38,6.80
2015,01,29,10,39,6.70
2015,01,29,10,40,6.70
2015,01,29,10,41,6.70
2015,01,29,10,42,6.70
2015,01,29,10,43,6.70
2015,01,29,10,44,6.60
2015,01,29,10,45,6.60
2015,01,29,10,46,6.60
2015,01,29,10,47,6.60
2015,01,29,10,48,6.60
2015,01,29,10,49,6.60
2015,01,29,10,50,6.60
2015,01,29,10,51,6.60
2015,01,29,10,52,6.60
2015,01,29,10,53,6.60
2015,01,29,10,54,6.60
2015,01,29,10,55,6.60
2015,01,29,10,56,6.60
2015,01,29,10,57,6.60
2015,01,29,10,58,6.70
2015,01,29,10,59,6.70
2015,01,29,11,00,6.70
2015,01,29,11,01,6.70
2015,01,29,11,02,6.70
2015,01,29,11,03,6.70
2015,01,29,11,04,6.70
2015,01,29,11,05,6.70
2015,01,29,11,06,6.60
2015,01,29,11,07,6.60
2015,01,29,11,08,6.50
2015,01,29,11,09,6.50
2015,01,29,11,10,6.50
2015,01,29,11,11,6.40
2015,01,29,11,12,6.40
2015,01,29,11,13,6.40
2015,01,29,11,14,6.40
2015,01,29,11,15,6.40
2015,01,29,11,16,6.30
2015,01,29,11,17,6.30
2015,01,29,11,18,6.30
2015,01,29,11,19,6.30
2015,01,29,11,20,6.30
2015,01,29,11,21,6.30
2015,01,29,11,22,6.30
2015,01,29,11,23,6.30
2015,01,29,11,24,6.30
2015,01,29,11,25,6.40
2015,01,29,11,26,6.40
2015,01,29,11,27,6.40
2015,01,29,11,28,6.50
2015,01,29,11,29,6.50
2015,01,29,11,30,6.60
2015,01,29,11,31,6.60
2015,01,29,11,32,6.70
2015,01,29,11,33,6.70
2015,01,29,11,34,6.80
2015,01,29,11,35,6.80
2015,01,29,11,36,6.90
2015,01,29,11,37,6.90
2015,01,29,11,38,7.00
2015,01,29,11,39,7.00
2015,01,29,11,40,7.10
2015,01,29,11,41,7.10
2015,01,29,11,42,7.10
2015,01,29,11,43,7.20
2015,01,29,11,44,7.20
2015,01,29,11,45,7.20
2015,01,29,11,46,7.20
2015,01,29,11,47,7.20
2015,01,29,11,48,7.20
2015,01,29,11,49,7.20
2015,01,29,11,50,7.30
2015,01,29,11,51,7.30
2015,01,29,11,52,7.30
2015,01,29,11,53,7.30
2015,01,29,11,54,7.40
2015,01,29,11,55,7.40
2015,01,29,11,56,7.40
2015,01,29,11,57,7.40
2015,01,29,11,58,7.40
2015,01,29,11,59,7.50
2015,01,29,12,00,7.50
2015,01,29,12,01,7.50
2015,01,29,12,02,7.60
2015,01,29,12,03,7.60
2015,01,29,12,04,7.70
2015,01,29,12,05,7.70
2015,01,29,12,06,7.70
2015,01,29,12,07,7.80
2015,01,29,12,08,7.80
2015,01,29,12,09,7.80
2015,01,29,12,10,7.90
2015,01,29,12,11,8.00
2015,01,29,12,12,8.00
2015,01,29,12,13,8.00
2015,01,29,12,14,8.10
2015,01,29,12,15,8.10
2015,01,29,12,16,8.20
2015,01,29,12,17,8.20
2015,01,29,12,18,8.30
2015,01,29,12,19,8.30
2015,01,29,12,20,8.30
2015,01,29,12,21,8.40
2015,01,29,12,22,8.40
2015,01,29,12,23,8.40
2015,01,29,12,24,8.40
2015,01,29,12,25,8.50
2015,01,29,12,26,8.50
2015,01,29,12,27,8.50
2015,01,29,12,28,8.60
2015,01,29,12,29,8.60
2015,01,29,12,30,8.60
2015,01,29,12,31,8.70
2015,01,29,12,32,8.70
2015,01,29,12,33,8.70
2015,01,29,12,34,8.70
2015,01,29,12,35,8.80
2015,01,29,12,36,8.80
2015,01,29,12,37,8.80
2015,01,29,12,38,8.80
2015,01,29,12,39,8.80
2015,01,29,12,40,8.80
2015,01,29,12,41,8.80
2015,01,29,12,42,8.80
2015,01,29,12,43,8.80
2015,01,29,12,44,8.90
2015,01,29,12,45,8.90
2015,01,29,12,46,8.90
2015,01,29,12,47,8.90
2015,01,29,12,48,9.00
2015,01,29,12,49,9.00
2015,01,29,12,50,9.10
2015,01,29,12,51,9.10
2015,01,29,12,52,9.10
2015,01,29,12,53,9.10
2015,01,29,12,54,9.10
2015,01,29,12,55,9.10
2015,01,29,12,56,9.00
2015,01,29,12,57,9.00
2015,01,29,12,58,9.00
2015,01,29,12,59,9.00
2015,01,29,13,00,9.00
2015,01,29,13,01,9.00
2015,01,29,13,02,9.00
2015,01,29,13,03,9.00
2015,01,29,13,04,9.10
2015,01,29,13,05,9.10
2015,01,29,13,06,9.10
2015,01,29,13,07,9.10
2015,01,29,13,08,9.10
2015,01,29,13,09,9.10
2015,01,29,13,10,9.10
2015,01,29,13,11,9.10
2015,01,29,13,12,9.10
2015,01,29,13,13,9.10
2015,01,29,13,14,9.10
2015,01,29,13,15,9.10
2015,01,29,13,16,9.10
2015,01,29,13,17,9.10
2015,01,29,13,18,9.10
2015,01,29,13,19,9.10
2015,01,29,13,20,9.10
2015,01,29,13,21,9.10
2015,01,29,13,22,9.10
2015,01,29,13,23,9.10
2015,01,29,13,24,9.10
2015,01,29,13,25,9.10
2015,01,29,13,26,9.10
2015,01,29,13,27,9.10
2015,01,29,13,28,9.10
2015,01,29,13,29,9.10
2015,01,29,13,30,9.10
2015,01,29,13,31,9.10
2015,01,29,13,32,9.10
2015,01,29,13,33,9.10
2015,01,29,13,34,9.10
2015,01,29,13,35,9.10
2015,01,29,13,36,9.10
2015,01,29,13,37,9.10
2015,01,29,13,38,9.20
2015,01,29,13,39,9.20
2015,01,29,13,40,9.20
2015,01,29,13,41,9.20
2015,01,29,13,42,9.20
2015,01,29,13,43,9.20
2015,01,29,13,44,9.20
2015,01,29,13,45,9.10
2015,01,29,13,46,9.10
2015,01,29,13,47,9.10
2015,01,29,13,48,9.10
2015,01,29,13,49,9.10
2015,01,29,13,50,9.00
2015,01,29,13,51,9.00
2015,01,29,13,52,9.00
2015,01,29,13,53,8.90
2015,01,29,13,54,8.90
2015,01,29,13,55,8.90
2015,01,29,13,56,8.90
2015,01,29,13,57,8.90
2015,01,29,13,58,8.90
2015,01,29,13,59,8.90
2015,01,29,14,00,8.90
2015,01,29,14,01,8.90
2015,01,29,14,02,9.00
2015,01,29,14,03,9.00
2015,01,29,14,04,9.00
2015,01,29,14,05,9.00
2015,01,29,14,06,9.00
2015,01,29,14,07,9.10
2015,01,29,14,08,9.10
2015,01,29,14,09,9.00
2015,01,29,14,10,9.00
2015,01,29,14,11,9.00
2015,01,29,14,12,9.00
2015,01,29,14,13,9.00
2015,01,29,14,14,9.00
2015,01,29,14,15,9.00
2015,01,29,14,16,9.00
2015,01,29,14,17,9.00
2015,01,29,14,18,9.00
2015,01,29,14,19,9.00
2015,01,29,14,20,9.00
2015,01,29,14,21,9.00
2015,01,29,14,22,9.00
2015,01,29,14,23,9.00
2015,01,29,14,24,9.00
2015,01,29,14,25,9.00
2015,01,29,14,26,9.00
2015,01,29,14,27,9.00
2015,01,29,14,28,9.00
2015,01,29,14,29,9.00
2015,01,29,14,30,9.00
2015,01,29,14,31,9.00
2015,01,29,14,32,9.00
2015,01,29,14,33,9.00
2015,01,29,14,34,9.00
2015,01,29,14,35,9.00
2015,01,29,14,36,9.00
2015,01,29,14,37,9.00
2015,01,29,14,38,8.90
2015,01,29,14,39,8.90
2015,01,29,14,40,8.90
2015,01,29,14,41,8.90
2015,01,29,14,42,8.90
2015,01,29,14,43,8.90
2015,01,29,14,44,8.90
2015,01,29,14,45,8.90
2015,01,29,14,46,8.90
2015,01,29,14,47,8.90
2015,01,29,14,48,8.90
2015,01,29,14,49,8.90
2015,01,29,14,50,8.90
2015,01,29,14,51,8.90
2015,01,29,14,52,8.90
2015,01,29,14,53,8.90
2015,01,29,14,54,8.90
2015,01,29,14,55,8.80
2015,01,29,14,56,8.90
2015,01,29,14,57,8.80
2015,01,29,14,58,8.80
2015,01,29,14,59,8.80
2015,01,29,15,00,8.80
2015,01,29,15,01,8.80
2015,01,29,15,02,8.80
2015,01,29,15,03,8.80
2015,01,29,15,04,8.80
2015,01,29,15,05,8.70
2015,01,29,15,06,8.70
2015,01,29,15,07,8.70
2015,01,29,15,08,8.60
2015,01,29,15,09,8.60
2015,01,29,15,10,8.60
2015,01,29,15,11,8.60
2015,01,29,15,12,8.50
2015,01,29,15,13,8.50
2015,01,29,15,14,8.50
2015,01,29,15,15,8.40
2015,01,29,15,16,8.40
2015,01,29,15,17,8.40
2015,01,29,15,18,8.30
2015,01,29,15,19,8.30
2015,01,29,15,20,8.30
2015,01,29,15,21,8.30
2015,01,29,15,22,8.20
2015,01,29,15,23,8.20
2015,01,29,15,24,8.20
2015,01,29,15,25,8.10
2015,01,29,15,26,8.10
2015,01,29,15,27,8.10
2015,01,29,15,28,8.00
2015,01,29,15,29,8.00
2015,01,29,15,30,8.00
2015,01,29,15,31,7.90
2015,01,29,15,32,7.90
2015,01,29,15,33,7.80
2015,01,29,15,34,7.80
2015,01,29,15,35,7.80
2015,01,29,15,36,7.80
2015,01,29,15,37,7.80
2015,01,29,15,38,7.80
2015,01,29,15,39,7.80
2015,01,29,15,40,7.90
2015,01,29,15,41,7.90
2015,01,29,15,42,7.90
2015,01,29,15,43,7.90
2015,01,29,15,44,8.00
2015,01,29,15,45,8.00
2015,01,29,15,46,8.00
2015,01,29,15,47,8.00
2015,01,29,15,48,8.00
2015,01,29,15,49,7.90
2015,01,29,15,50,7.90
2015,01,29,15,51,7.90
2015,01,29,15,52,7.80
2015,01,29,15,53,7.80
2015,01,29,15,54,7.80
2015,01,29,15,55,7.70
2015,01,29,15,56,7.70
2015,01,29,15,57,7.70
2015,01,29,15,58,7.60
2015,01,29,15,59,7.50
2015,01,29,16,00,7.50
2015,01,29,16,01,7.40
2015,01,29,16,02,7.30
2015,01,29,16,03,7.30
2015,01,29,16,04,7.20
2015,01,29,16,05,7.20
2015,01,29,16,06,7.20
2015,01,29,16,07,7.10
2015,01,29,16,08,7.10
2015,01,29,16,09,7.10
2015,01,29,16,10,7.00
2015,01,29,16,11,7.00
2015,01,29,16,12,6.90
2015,01,29,16,13,6.80
2015,01,29,16,14,6.80
2015,01,29,16,15,6.80
2015,01,29,16,16,6.70
2015,01,29,16,17,6.70
2015,01,29,16,18,6.60
2015,01,29,16,19,6.60
2015,01,29,16,20,6.50
2015,01,29,16,21,6.50
2015,01,29,16,22,6.50
2015,01,29,16,23,6.40
2015,01,29,16,24,6.40
2015,01,29,16,25,6.40
2015,01,29,16,26,6.30
2015,01,29,16,27,6.30
2015,01,29,16,28,6.30
2015,01,29,16,29,6.20
2015,01,29,16,30,6.20
2015,01,29,16,31,6.20
2015,01,29,16,32,6.10
2015,01,29,16,33,6.10
2015,01,29,16,34,6.10
2015,01,29,16,35,6.00
2015,01,29,16,36,6.00
2015,01,29,16,37,5.90
2015,01,29,16,38,5.90
2015,01,29,16,39,5.90
2015,01,29,16,40,5.90
2015,01,29,16,41,5.80
2015,01,29,16,42,5.80
2015,01,29,16,43,5.80
2015,01,29,16,44,5.80
2015,01,29,16,45,5.80
2015,01,29,16,46,5.70
2015,01,29,16,47,5.70
2015,01,29,16,48,5.70
2015,01,29,16,49,5.60
2015,01,29,16,50,5.60
2015,01,29,16,51,5.60
2015,01,29,16,52,5.60
2015,01,29,16,53,5.50
2015,01,29,16,54,5.50
2015,01,29,16,55,5.40
2015,01,29,16,56,5.40
2015,01,29,16,57,5.40
2015,01,29,16,58,5.40
2015,01,29,16,59,5.30
2015,01,29,17,00,5.30
2015,01,29,17,01,5.30
2015,01,29,17,02,5.30
2015,01,29,17,03,5.20
2015,01,29,17,04,5.20
2015,01,29,17,05,5.20
2015,01,29,17,06,5.10
2015,01,29,17,07,5.10
2015,01,29,17,08,5.10
2015,01,29,17,09,5.10
2015,01,29,17,10,5.00
2015,01,29,17,11,5.00
2015,01,29,17,12,4.90
2015,01,29,17,13,4.90
2015,01,29,17,14,4.90
2015,01,29,17,15,4.80
2015,01,29,17,16,4.80
2015,01,29,17,17,4.80
2015,01,29,17,18,4.70
2015,01,29,17,19,4.70
2015,01,29,17,20,4.70
2015,01,29,17,21,4.70
2015,01,29,17,22,4.60
2015,01,29,17,23,4.60
2015,01,29,17,24,4.60
2015,01,29,17,25,4.50
2015,01,29,17,26,4.50
2015,01,29,17,27,4.40
2015,01,29,17,28,4.40
2015,01,29,17,29,4.30
2015,01,29,17,30,4.30
2015,01,29,17,31,4.30
2015,01,29,17,32,4.30
2015,01,29,17,33,4.20
2015,01,29,17,34,4.20
2015,01,29,17,35,4.20
2015,01,29,17,36,4.10
2015,01,29,17,37,4.10
2015,01,29,17,38,4.10
2015,01,29,17,39,4.10
2015,01,29,17,40,4.10
2015,01,29,17,41,4.00
2015,01,29,17,42,4.00
2015,01,29,17,43,4.00
2015,01,29,17,44,3.90
2015,01,29,17,45,3.90
2015,01,29,17,46,3.90
2015,01,29,17,47,3.80
2015,01,29,17,48,3.80
2015,01,29,17,49,3.80
2015,01,29,17,50,3.80
2015,01,29,17,51,3.80
2015,01,29,17,52,3.80
2015,01,29,17,53,3.80
2015,01,29,17,54,3.80
2015,01,29,17,55,3.80
2015,01,29,17,56,3.80
2015,01,29,17,57,3.80
2015,01,29,17,58,3.70
2015,01,29,17,59,3.70
2015,01,29,18,00,3.70
2015,01,29,18,01,3.60
2015,01,29,18,02,3.60
2015,01,29,18,03,3.60
2015,01,29,18,04,3.60
2015,01,29,18,05,3.50
2015,01,29,18,06,3.50